Radiation Dose at Monitoring Post of Fukushima Daini Nuclear Power Station
Date,Time,MP-1(microSv/h),MP-2(microSv/h),MP-3(microSv/h),MP-4(microSv/h),MP-5(microSv/h),MP-6(microSv/h),MP-7(microSv/h),Wind Direction,Wind Velocity(m/s),Rain
2016/02/06,00:00,0.443,0.260,0.463,0.426,0.391,0.217,0.190,north-northwest,1.0,No
2016/02/06,00:10,0.441,0.260,0.463,0.427,0.390,0.216,0.189,north,1.1,No
2016/02/06,00:20,0.442,0.260,0.464,0.426,0.389,0.217,0.189,north-northeast,1.8,No
2016/02/06,00:30,0.441,0.261,0.464,0.425,0.390,0.216,0.189,north-northeast,1.3,No
2016/02/06,00:40,0.442,0.261,0.464,0.427,0.390,0.216,0.190,north-northeast,2.2,No
2016/02/06,00:50,0.444,0.261,0.465,0.426,0.389,0.217,0.189,north-northeast,2.0,No
2016/02/06,01:00,0.444,0.262,0.463,0.424,0.390,0.216,0.190,north,3.7,No
2016/02/06,01:10,0.442,0.260,0.463,0.427,0.391,0.216,0.189,north,3.7,No
2016/02/06,01:20,0.442,0.259,0.464,0.427,0.391,0.215,0.189,north,5.0,No
2016/02/06,01:30,0.443,0.261,0.465,0.425,0.389,0.216,0.189,north,4.0,No
2016/02/06,01:40,0.442,0.261,0.464,0.428,0.390,0.217,0.189,north,4.7,No
2016/02/06,01:50,0.443,0.261,0.463,0.426,0.390,0.216,0.190,north,6.4,No
2016/02/06,02:00,0.443,0.260,0.466,0.427,0.390,0.216,0.189,north,7.0,No
2016/02/06,02:10,0.445,0.261,0.464,0.426,0.388,0.217,0.190,north,7.5,No
2016/02/06,02:20,0.442,0.262,0.464,0.427,0.392,0.217,0.191,north,8.9,No
2016/02/06,02:30,0.444,0.261,0.466,0.428,0.390,0.217,0.190,north,8.8,No
2016/02/06,02:40,0.443,0.262,0.466,0.427,0.388,0.218,0.191,north,8.8,No
2016/02/06,02:50,0.444,0.261,0.466,0.427,0.390,0.216,0.190,north,7.3,No
2016/02/06,03:00,0.442,0.262,0.465,0.427,0.390,0.217,0.190,north,8.4,No
2016/02/06,03:10,0.442,0.262,0.466,0.428,0.391,0.217,0.190,north,6.0,No
2016/02/06,03:20,0.444,0.262,0.465,0.425,0.390,0.218,0.190,north,7.4,No
2016/02/06,03:30,0.444,0.261,0.466,0.425,0.389,0.217,0.191,north,7.4,No
2016/02/06,03:40,0.442,0.262,0.465,0.429,0.392,0.217,0.189,north,6.4,No
2016/02/06,03:50,0.444,0.260,0.467,0.427,0.390,0.216,0.189,north,5.6,No
2016/02/06,04:00,0.445,0.261,0.466,0.425,0.389,0.217,0.190,north,6.3,No
2016/02/06,04:10,0.443,0.261,0.463,0.428,0.389,0.216,0.190,north,6.5,No
2016/02/06,04:20,0.442,0.261,0.467,0.428,0.391,0.217,0.189,north-northwest,5.8,Yes
2016/02/06,04:30,0.444,0.261,0.466,0.426,0.389,0.217,0.189,north-northwest,5.5,No
2016/02/06,04:40,0.443,0.261,0.464,0.426,0.389,0.217,0.189,north-northwest,4.8,Yes
2016/02/06,04:50,0.445,0.260,0.465,0.428,0.392,0.217,0.188,north-northwest,5.2,Yes
2016/02/06,05:00,0.445,0.262,0.467,0.426,0.393,0.217,0.190,north-northwest,6.2,Yes
2016/02/06,05:10,0.444,0.263,0.466,0.427,0.389,0.217,0.190,north-northwest,6.3,Yes
2016/02/06,05:20,0.444,0.262,0.464,0.426,0.390,0.217,0.191,north-northwest,5.8,Yes
2016/02/06,05:30,0.444,0.261,0.467,0.427,0.390,0.217,0.191,north-northwest,5.4,Yes
2016/02/06,05:40,0.443,0.263,0.468,0.426,0.392,0.216,0.190,north-northwest,5.8,Yes
2016/02/06,05:50,0.443,0.262,0.464,0.428,0.390,0.217,0.190,northwest,4.4,Yes
2016/02/06,06:00,0.442,0.262,0.465,0.427,0.391,0.216,0.190,north-northwest,5.1,Yes
2016/02/06,06:10,0.440,0.263,0.467,0.427,0.389,0.218,0.191,north-northwest,5.4,Yes
2016/02/06,06:20,0.444,0.262,0.465,0.425,0.390,0.219,0.191,north-northwest,5.0,Yes
2016/02/06,06:30,0.443,0.263,0.465,0.427,0.390,0.218,0.191,north-northwest,6.2,Yes
2016/02/06,06:40,0.442,0.262,0.465,0.428,0.389,0.218,0.189,north-northwest,5.8,Yes
2016/02/06,06:50,0.443,0.261,0.466,0.427,0.389,0.217,0.191,north-northwest,6.1,Yes
2016/02/06,07:00,0.444,0.261,0.467,0.426,0.389,0.217,0.191,north-northwest,6.2,Yes
2016/02/06,07:10,0.442,0.262,0.466,0.425,0.389,0.218,0.191,north,5.4,Yes
2016/02/06,07:20,0.443,0.262,0.466,0.428,0.388,0.217,0.190,north,5.8,Yes
2016/02/06,07:30,0.442,0.260,0.466,0.426,0.389,0.217,0.190,north-northwest,7.0,Yes
2016/02/06,07:40,0.443,0.261,0.468,0.425,0.390,0.217,0.189,north,7.3,Yes
2016/02/06,07:50,0.444,0.261,0.463,0.426,0.391,0.218,0.190,north,8.9,Yes
2016/02/06,08:00,0.441,0.263,0.465,0.427,0.390,0.218,0.190,north,7.3,Yes
2016/02/06,08:10,0.442,0.264,0.465,0.424,0.389,0.218,0.189,north,7.0,Yes
2016/02/06,08:20,0.443,0.263,0.466,0.425,0.389,0.217,0.190,north-northwest,7.6,Yes
2016/02/06,08:30,0.441,0.260,0.463,0.425,0.391,0.216,0.190,north-northwest,7.0,Yes
2016/02/06,08:40,0.443,0.261,0.464,0.427,0.389,0.217,0.189,north-northwest,7.3,Yes
2016/02/06,08:50,0.440,0.261,0.464,0.425,0.389,0.217,0.188,north-northwest,5.8,Yes
2016/02/06,09:00,0.441,0.260,0.465,0.424,0.388,0.215,0.187,north-northwest,5.7,Yes
2016/02/06,09:10,0.441,0.260,0.463,0.424,0.389,0.216,0.189,north-northwest,5.8,Yes
2016/02/06,09:20,0.440,0.259,0.463,0.426,0.389,0.215,0.188,north-northwest,6.1,No
2016/02/06,09:30,0.440,0.261,0.463,0.421,0.388,0.214,0.188,northwest,6.6,Yes
2016/02/06,09:40,0.442,0.261,0.464,0.424,0.389,0.216,0.187,north-northwest,6.8,Yes
2016/02/06,09:50,0.442,0.262,0.462,0.423,0.389,0.216,0.188,north-northwest,5.9,Yes
2016/02/06,10:00,0.440,0.262,0.463,0.423,0.388,0.215,0.188,north-northwest,5.3,Yes
2016/02/06,10:10,0.440,0.260,0.466,0.422,0.389,0.214,0.187,north-northwest,4.2,Yes
2016/02/06,10:20,0.442,0.261,0.463,0.422,0.386,0.215,0.187,north-northwest,4.5,No
2016/02/06,10:30,0.441,0.259,0.461,0.423,0.388,0.215,0.186,north-northwest,4.1,No
2016/02/06,10:40,0.441,0.260,0.463,0.422,0.389,0.215,0.187,north-northwest,3.5,No
2016/02/06,10:50,0.441,0.260,0.463,0.422,0.388,0.214,0.186,north-northwest,3.1,No
2016/02/06,11:00,0.442,0.259,0.461,0.422,0.388,0.216,0.186,north-northwest,2.4,No
2016/02/06,11:10,0.440,0.259,0.462,0.422,0.389,0.215,0.186,north-northwest,3.6,No
2016/02/06,11:20,0.441,0.258,0.463,0.422,0.389,0.214,0.186,north-northwest,3.5,No
2016/02/06,11:30,0.442,0.260,0.462,0.422,0.390,0.214,0.188,north,3.9,No
2016/02/06,11:40,0.441,0.260,0.463,0.421,0.390,0.214,0.187,north-northwest,3.5,No
2016/02/06,11:50,0.441,0.258,0.465,0.421,0.389,0.214,0.187,north,3.1,No
2016/02/06,12:00,0.442,0.259,0.463,0.424,0.388,0.214,0.187,north,2.8,No
2016/02/06,12:10,0.442,0.260,0.462,0.423,0.391,0.215,0.187,north-northeast,4.1,No
2016/02/06,12:20,0.441,0.259,0.464,0.422,0.390,0.214,0.188,north,3.8,No
2016/02/06,12:30,0.442,0.258,0.462,0.424,0.388,0.214,0.186,north,5.0,No
2016/02/06,12:40,0.443,0.259,0.462,0.423,0.389,0.215,0.187,north-northeast,6.3,No
2016/02/06,12:50,0.443,0.260,0.464,0.422,0.391,0.215,0.187,north-northeast,5.7,Yes
2016/02/06,13:00,0.442,0.260,0.463,0.424,0.390,0.214,0.188,north-northeast,6.0,Yes
2016/02/06,13:10,0.444,0.262,0.464,0.425,0.391,0.215,0.188,north,6.5,Yes
2016/02/06,13:20,0.443,0.261,0.465,0.424,0.391,0.215,0.189,north,6.5,Yes
2016/02/06,13:30,0.444,0.261,0.466,0.425,0.390,0.215,0.187,north,5.2,Yes
2016/02/06,13:40,0.443,0.260,0.464,0.425,0.391,0.216,0.188,north,5.4,Yes
2016/02/06,13:50,0.443,0.259,0.464,0.424,0.389,0.215,0.188,north,5.3,Yes
2016/02/06,14:00,0.443,0.260,0.465,0.423,0.389,0.215,0.187,north,4.3,No
2016/02/06,14:10,0.444,0.261,0.465,0.425,0.392,0.214,0.188,north,6.4,Yes
2016/02/06,14:20,0.445,0.261,0.464,0.424,0.390,0.215,0.187,north,4.6,Yes
2016/02/06,14:30,0.444,0.260,0.464,0.424,0.389,0.215,0.188,north,4.0,Yes
2016/02/06,14:40,0.445,0.261,0.464,0.423,0.392,0.215,0.187,north,3.4,Yes
2016/02/06,14:50,0.444,0.261,0.463,0.423,0.392,0.214,0.187,north,3.7,Yes
2016/02/06,15:00,0.444,0.261,0.465,0.424,0.389,0.213,0.187,north,5.0,Yes
2016/02/06,15:10,0.443,0.260,0.466,0.424,0.388,0.216,0.187,north,5.1,Yes
2016/02/06,15:20,0.444,0.262,0.465,0.424,0.392,0.215,0.186,north-northwest,4.6,Yes
2016/02/06,15:30,0.446,0.260,0.465,0.424,0.391,0.215,0.187,north-northwest,4.9,Yes
2016/02/06,15:40,0.443,0.261,0.467,0.423,0.391,0.215,0.188,north,4.5,No
2016/02/06,15:50,0.444,0.260,0.467,0.424,0.389,0.214,0.187,north-northwest,3.7,No
2016/02/06,16:00,0.444,0.260,0.464,0.422,0.393,0.214,0.188,north,4.3,No
2016/02/06,16:10,0.445,0.261,0.464,0.424,0.391,0.215,0.187,north-northwest,2.8,No
2016/02/06,16:20,0.444,0.261,0.467,0.424,0.390,0.215,0.187,north,3.7,No
2016/02/06,16:30,0.445,0.260,0.465,0.426,0.389,0.214,0.187,north,3.4,No
2016/02/06,16:40,0.445,0.259,0.464,0.423,0.391,0.215,0.187,north,4.0,No
2016/02/06,16:50,0.446,0.261,0.467,0.422,0.390,0.215,0.187,north-northwest,3.5,No
2016/02/06,17:00,0.445,0.262,0.467,0.425,0.390,0.214,0.188,north,4.5,No
2016/02/06,17:10,0.444,0.261,0.467,0.425,0.391,0.215,0.186,north-northwest,3.1,No
2016/02/06,17:20,0.445,0.261,0.465,0.422,0.392,0.215,0.189,north-northwest,4.3,No
2016/02/06,17:30,0.445,0.262,0.468,0.425,0.392,0.215,0.187,north-northwest,4.1,No
2016/02/06,17:40,0.445,0.261,0.467,0.424,0.392,0.215,0.188,north-northwest,3.3,No
2016/02/06,17:50,0.447,0.262,0.465,0.423,0.391,0.214,0.188,north-northwest,5.1,No
2016/02/06,18:00,0.446,0.261,0.466,0.424,0.392,0.214,0.188,north-northwest,5.0,No
2016/02/06,18:10,0.444,0.260,0.467,0.425,0.390,0.216,0.187,north-northwest,6.5,No
2016/02/06,18:20,0.446,0.261,0.466,0.424,0.389,0.216,0.188,north-northwest,6.0,No
2016/02/06,18:30,0.445,0.261,0.467,0.424,0.392,0.215,0.188,north-northwest,6.7,No
2016/02/06,18:40,0.444,0.260,0.467,0.423,0.393,0.215,0.187,north-northwest,6.2,No
2016/02/06,18:50,0.444,0.260,0.466,0.424,0.391,0.215,0.188,north-northwest,5.8,No
2016/02/06,19:00,0.444,0.261,0.465,0.424,0.390,0.215,0.187,north-northwest,7.3,No
2016/02/06,19:10,0.448,0.262,0.466,0.424,0.392,0.215,0.188,north-northwest,6.6,No
2016/02/06,19:20,0.445,0.262,0.467,0.425,0.393,0.216,0.188,north-northwest,6.7,No
2016/02/06,19:30,0.446,0.261,0.467,0.426,0.390,0.215,0.188,north-northwest,7.3,No
2016/02/06,19:40,0.444,0.261,0.466,0.426,0.390,0.216,0.187,north-northwest,8.7,No
2016/02/06,19:50,0.444,0.261,0.468,0.424,0.391,0.215,0.189,north-northwest,8.4,No
2016/02/06,20:00,0.446,0.262,0.469,0.426,0.392,0.215,0.187,north,8.5,No
2016/02/06,20:10,0.446,0.261,0.467,0.426,0.392,0.215,0.188,north-northwest,8.5,No
2016/02/06,20:20,0.446,0.261,0.467,0.426,0.390,0.215,0.188,north-northwest,8.4,No
2016/02/06,20:30,0.446,0.261,0.469,0.425,0.392,0.215,0.188,north-northwest,9.2,No
2016/02/06,20:40,0.446,0.261,0.467,0.425,0.392,0.216,0.189,north-northwest,9.2,No
2016/02/06,20:50,0.445,0.261,0.467,0.425,0.392,0.217,0.188,north-northwest,8.9,No
2016/02/06,21:00,0.444,0.261,0.467,0.424,0.391,0.215,0.188,north-northwest,8.7,No
2016/02/06,21:10,0.445,0.261,0.468,0.426,0.392,0.217,0.188,north-northwest,9.8,No
2016/02/06,21:20,0.446,0.262,0.469,0.425,0.391,0.216,0.189,north-northwest,8.8,No
2016/02/06,21:30,0.445,0.262,0.469,0.426,0.392,0.216,0.187,north-northwest,8.7,No
2016/02/06,21:40,0.446,0.261,0.468,0.426,0.393,0.215,0.187,north-northwest,9.0,No
2016/02/06,21:50,0.448,0.262,0.466,0.424,0.393,0.215,0.188,north-northwest,8.4,No
2016/02/06,22:00,0.446,0.261,0.467,0.425,0.391,0.214,0.188,north-northwest,9.6,No
2016/02/06,22:10,0.446,0.261,0.470,0.426,0.392,0.216,0.188,north-northwest,7.7,No
2016/02/06,22:20,0.445,0.262,0.469,0.424,0.392,0.216,0.188,north-northwest,9.5,No
2016/02/06,22:30,0.445,0.262,0.468,0.424,0.392,0.215,0.187,north,7.6,No
2016/02/06,22:40,0.447,0.261,0.467,0.425,0.394,0.215,0.187,north,7.9,No
2016/02/06,22:50,0.445,0.262,0.468,0.425,0.391,0.215,0.188,north,8.7,No
2016/02/06,23:00,0.444,0.262,0.469,0.426,0.392,0.215,0.187,north,8.8,No
2016/02/06,23:10,0.446,0.262,0.467,0.424,0.393,0.215,0.188,north-northwest,7.7,No
2016/02/06,23:20,0.446,0.261,0.467,0.425,0.391,0.216,0.188,north,8.7,No
2016/02/06,23:30,0.447,0.261,0.467,0.425,0.392,0.215,0.188,north,8.7,No
2016/02/06,23:40,0.445,0.262,0.469,0.425,0.392,0.216,0.188,north,8.4,No
2016/02/06,23:50,0.448,0.262,0.467,0.427,0.394,0.215,0.187,north,9.5,No
